Location: ??????
(55.6130°N, 37.7882°E)
Time: 11:53:19
(UTC+00:00)

Envisat - Visible Passes

Search period start: 23 June 2024 00:00
Search period end: 03 July 2024 00:00
Orbit: 762 x 764 km, 98.3° (Epoch: 22 June)

Date Brightness Start Highest point End Pass type
(mag) Time Alt. Az. Time Alt. Az. Time Alt. Az.
23 Jun 5.1 23:44:18 10° NE 23:48:15 22° E 23:52:11 10° SE visible
24 Jun 5.6 23:08:30 10° ENE 23:10:18 12° E 23:12:06 10° ESE visible
26 Jun 5.4 23:31:29 10° NE 23:34:57 18° E 23:38:22 10° SE visible
29 Jun 5.5 23:18:50 10° NE 23:21:35 14° E 23:24:20 10° ESE visible
01 Jul 5.1 23:42:16 10° NE 23:46:11 22° E 23:50:03 10° SE visible
02 Jul 5.7 23:06:33 10° ENE 23:08:12 11° E 23:09:51 10° E visible
